GW3474 Weather Reports


time (UTC)temp
C
wind
direction
speed
KPH
gust
KPH
rain 1hr
cm
rain 24hr
cm
rain mn
cm
humidity
%
barometer
mb
20260505051516 17 0.0 0.0 0.00 0.00 0.00 61 1006.3
20260505050515 18 0.0 0.0 0.00 0.00 0.00 64 1006.3
20260505041516 18 0.0 0.0 0.00 0.00 0.00 55 1005.1
20260505040516 18 0.0 0.0 0.00 0.00 0.00 56 1004.9
20260505035516 18 0.0 0.0 0.00 0.00 0.00 54 1005.2
20260505034535 18 0.0 0.0 0.00 0.00 0.00 54 1005.2
20260505033515 18 0.0 0.0 0.00 0.00 0.00 56 1005.1
20260505032536 18 0.0 0.0 0.00 0.00 0.00 54 1005.2
20260505031516 18 0.0 0.0 0.00 0.00 0.00 55 1004.9
20260505030536 19 0.0 0.0 0.00 0.00 0.00 54 1004.7
20260505025536 18 0.0 0.0 0.00 0.00 0.00 55 1004.5
20260505024515 18 0.0 0.0 0.00 0.00 0.00 55 1004.3
20260505023515 20 0.0 0.0 0.00 0.00 0.00 52 1004.3
20260505022516 20 0.0 0.0 0.00 0.00 0.00 51 1004.2
20260505021516 20 0.0 0.0 0.00 0.00 0.00 50 1004.1
20260505020516 20 0.0 0.0 0.00 0.00 0.00 50 1003.8
20260505015556 20 0.0 0.0 0.00 0.00 0.00 50 1003.8
20260505014515 21 0.0 0.0 0.00 0.00 0.00 48 1003.6
20260505013515 21 0.0 0.0 0.00 0.00 0.00 47 1003.5
20260505012517 21 0.0 0.0 0.00 0.00 0.00 47 1003.5
20260505011516 21 0.0 0.0 0.00 0.00 0.00 45 1003.3
20260505010516 21 0.0 0.0 0.00 0.00 0.00 45 1003.4
20260505005536 21 0.0 0.0 0.00 0.00 0.00 46 1003.4
20260505004516 22 0.0 0.0 0.00 0.00 0.00 45 1003.4
20260505003535 22 0.0 0.0 0.00 0.00 0.00 43 1003.6
20260505002515 22 0.0 0.0 0.00 0.00 0.00 43 1003.6
20260505001515 23 0.0 0.0 0.00 0.00 0.00 38 1003.5
20260505000536 26 0.0 0.0 0.00 0.00 0.00 30 1003.7
20260504235515 28 0.0 0.0 0.00 0.00 0.00 22 1003.6
20260504234516 28 0.0 0.0 0.00 0.00 0.00 21 1003.8
20260504233515 28 0.0 0.0 0.00 0.00 0.00 21 1003.8
20260504232515 28 0.0 0.0 0.00 0.00 0.00 22 1003.9
20260504231515 28 0.0 0.0 0.00 0.00 0.00 22 1003.9
20260504230515 28 0.0 0.0 0.00 0.00 0.00 23 1004.0
20260504225517 28 0.0 0.0 0.00 0.00 0.00 23 1004.2
20260504224515 28 0.0 0.0 0.00 0.00 0.00 24 1004.1
20260504223515 28 0.0 0.0 0.00 0.00 0.00 23 1004.1
20260504222515 28 0.0 0.0 0.00 0.00 0.00 23 1004.2
20260504221515 28 0.0 0.0 0.00 0.00 0.00 23 1004.2
20260504220536 28 0.0 0.0 0.00 0.00 0.00 23 1004.4
20260504215515 29 0.0 0.0 0.00 0.00 0.00 22 1004.4
20260504214516 29 0.0 0.0 0.00 0.00 0.00 21 1004.5
20260504213515 29 0.0 0.0 0.00 0.00 0.00 22 1004.6
20260504212515 30 0.0 0.0 0.00 0.00 0.00 21 1004.8
20260504211515 30 0.0 0.0 0.00 0.00 0.00 20 1005.0
20260504210515 29 0.0 0.0 0.00 0.00 0.00 20 1005.3
20260504205515 28 0.0 0.0 0.00 0.00 0.00 23 1005.2
20260504204535 28 0.0 0.0 0.00 0.00 0.00 23 1005.4
20260504203516 28 0.0 0.0 0.00 0.00 0.00 23 1005.7
20260504202515 28 0.0 0.0 0.00 0.00 0.00 22 1005.7
20260504201516 28 0.0 0.0 0.00 0.00 0.00 22 1005.7
20260504200516 28 0.0 0.0 0.00 0.00 0.00 21 1005.7
20260504195516 28 0.0 0.0 0.00 0.00 0.00 19 1006.0
20260504194515 29 0.0 0.0 0.00 0.00 0.00 20 1006.2
20260504193515 29 0.0 0.0 0.00 0.00 0.00 19 1006.4
20260504192516 29 0.0 0.0 0.00 0.00 0.00 19 1006.7
20260504191516 29 0.0 0.0 0.00 0.00 0.00 19 1006.8
20260504190535 30 0.0 0.0 0.00 0.00 0.00 18 1006.9
20260504185516 29 0.0 0.0 0.00 0.00 0.00 19 1007.0
20260504184515 29 0.0 0.0 0.00 0.00 0.00 19 1007.2
20260504183516 28 0.0 0.0 0.00 0.00 0.00 20 1007.3
20260504182515 29 0.0 0.0 0.00 0.00 0.00 18 1007.5
20260504181516 29 0.0 0.0 0.00 0.00 0.00 16 1007.6
20260504180516 29 0.0 0.0 0.00 0.00 0.00 19 1007.6
20260504175515 29 0.0 0.0 0.00 0.00 0.00 19 1007.8
20260504174518 29 0.0 0.0 0.00 0.00 0.00 19 1008.0
20260504173516 29 0.0 0.0 0.00 0.00 0.00 19 1008.1
20260504172515 29 0.0 0.0 0.00 0.00 0.00 21 1008.2
20260504171515 28 0.0 0.0 0.00 0.00 0.00 22 1008.2
20260504170516 28 0.0 0.0 0.00 0.00 0.00 22 1008.2
20260504150536 22 0.0 0.0 0.00 0.00 0.00 40 1008.0
20260504140516 18 0.0 0.0 0.00 0.00 0.00 51 1008.5
20260504130518 12 0.0 0.0 0.00 0.00 0.00 67 1007.9
20260504110515 12 0.0 0.0 0.00 0.00 0.00 66 1007.8
20260504100516 13 0.0 0.0 0.00 0.00 0.00 64 1008.5
20260504081516 14 0.0 0.0 0.00 0.00 0.00 57 1009.1
20260504080515 15 0.0 0.0 0.00 0.00 0.00 55 1009.2